TimeEDT,TemperatureF,Dew PointF,Humidity,Sea Level PressureIn,VisibilityMPH,Wind Direction,Wind SpeedMPH,Gust SpeedMPH,PrecipitationIn,Events,Conditions,WindDirDegrees,DateUTC
12:53 AM,60.1,57.9,93,30.02,4.0,North,4.6,-,N/A,,Overcast,360,2012-10-03 04:53:00
1:44 AM,60.8,57.2,88,30.02,2.5,North,4.6,-,N/A,,Overcast,10,2012-10-03 05:44:00
1:53 AM,60.1,57.9,93,30.02,2.5,North,4.6,-,N/A,,Overcast,360,2012-10-03 05:53:00
2:27 AM,60.8,57.2,88,30.02,2.0,North,3.5,-,N/A,,Overcast,360,2012-10-03 06:27:00
2:41 AM,60.8,57.2,88,30.02,1.8,North,4.6,-,N/A,,Overcast,10,2012-10-03 06:41:00
2:53 AM,60.1,57.9,93,30.02,1.8,North,5.8,-,N/A,,Overcast,10,2012-10-03 06:53:00
3:53 AM,60.1,59.0,96,30.02,2.0,NNE,3.5,-,N/A,,Overcast,20,2012-10-03 07:53:00
4:38 AM,60.8,59.0,94,30.03,3.0,North,4.6,-,N/A,,Overcast,360,2012-10-03 08:38:00
4:53 AM,61.0,59.0,93,30.03,3.0,North,5.8,-,N/A,,Overcast,10,2012-10-03 08:53:00
5:08 AM,60.8,59.0,94,30.03,2.5,NNE,4.6,-,N/A,,Overcast,20,2012-10-03 09:08:00
5:33 AM,60.8,59.0,94,30.04,3.0,North,3.5,-,N/A,,Overcast,10,2012-10-03 09:33:00
5:53 AM,61.0,59.0,93,30.04,2.5,North,4.6,-,N/A,,Overcast,10,2012-10-03 09:53:00
6:26 AM,60.8,59.0,94,30.05,3.0,NNE,3.5,-,N/A,,Overcast,20,2012-10-03 10:26:00
6:42 AM,60.8,59.0,94,30.05,2.5,NNE,3.5,-,N/A,,Overcast,20,2012-10-03 10:42:00
6:53 AM,61.0,59.0,93,30.05,2.5,North,5.8,-,N/A,,Overcast,10,2012-10-03 10:53:00
7:13 AM,60.8,59.0,94,30.06,1.8,North,3.5,-,N/A,,Overcast,10,2012-10-03 11:13:00
7:53 AM,61.0,59.0,93,30.07,1.2,North,4.6,-,N/A,,Overcast,10,2012-10-03 11:53:00
8:53 AM,62.1,60.1,93,30.08,2.5,Calm,Calm,-,N/A,,Overcast,0,2012-10-03 12:53:00
9:39 AM,62.6,60.8,94,30.09,1.8,North,3.5,-,N/A,,Overcast,360,2012-10-03 13:39:00
9:53 AM,62.1,61.0,96,30.09,1.5,NNE,4.6,-,N/A,,Overcast,30,2012-10-03 13:53:00
10:08 AM,62.6,60.8,94,30.08,2.5,North,4.6,-,N/A,,Overcast,10,2012-10-03 14:08:00
10:16 AM,62.6,60.8,94,30.08,3.0,North,3.5,-,N/A,,Overcast,350,2012-10-03 14:16:00
10:53 AM,64.0,61.0,90,30.09,6.0,North,4.6,-,N/A,,Overcast,10,2012-10-03 14:53:00
11:53 AM,64.9,61.0,87,30.10,6.0,North,3.5,-,N/A,,Overcast,360,2012-10-03 15:53:00
12:53 PM,64.9,62.1,90,30.07,6.0,North,3.5,-,N/A,,Overcast,10,2012-10-03 16:53:00
1:53 PM,66.9,63.0,87,30.06,6.0,Calm,Calm,-,N/A,,Overcast,0,2012-10-03 17:53:00
2:53 PM,69.1,63.0,81,30.06,7.0,North,3.5,-,N/A,,Overcast,350,2012-10-03 18:53:00
3:03 PM,69.8,64.4,83,30.06,7.0,North,4.6,-,N/A,,Overcast,10,2012-10-03 19:03:00
3:53 PM,69.1,63.0,81,30.06,9.0,NNE,4.6,-,N/A,,Overcast,20,2012-10-03 19:53:00
4:53 PM,69.1,64.0,84,30.08,10.0,Calm,Calm,-,N/A,,Overcast,0,2012-10-03 20:53:00
5:46 PM,68.0,64.4,88,30.08,8.0,Calm,Calm,-,N/A,,Overcast,0,2012-10-03 21:46:00
5:53 PM,68.0,64.0,87,30.08,7.0,NNE,3.5,-,N/A,,Overcast,30,2012-10-03 21:53:00
6:53 PM,66.9,64.9,93,30.09,3.0,North,4.6,-,0.00,,Overcast,10,2012-10-03 22:53:00
7:38 PM,66.2,64.4,94,30.09,2.5,North,3.5,-,N/A,,Overcast,10,2012-10-03 23:38:00
7:53 PM,66.0,64.0,93,30.10,2.0,Calm,Calm,-,N/A,,Overcast,0,2012-10-03 23:53:00
8:41 PM,66.2,64.4,94,30.12,1.8,NNW,3.5,-,N/A,,Overcast,330,2012-10-04 00:41:00
8:49 PM,66.2,64.4,94,30.12,2.0,NW,3.5,-,N/A,,Overcast,320,2012-10-04 00:49:00
8:53 PM,66.0,64.9,96,30.12,2.0,Calm,Calm,-,N/A,,Overcast,0,2012-10-04 00:53:00
9:01 PM,66.2,64.4,94,30.12,1.5,North,3.5,-,0.01,Rain,Light Rain,360,2012-10-04 01:01:00
9:15 PM,66.2,64.4,94,30.12,2.0,North,3.5,-,0.01,Rain,Light Rain,350,2012-10-04 01:15:00
9:39 PM,66.2,64.4,94,30.12,2.5,North,3.5,-,0.01,,Overcast,350,2012-10-04 01:39:00
9:53 PM,66.0,64.0,93,30.12,3.0,North,4.6,-,0.01,,Overcast,10,2012-10-04 01:53:00
10:53 PM,66.0,64.0,93,30.13,2.0,NNW,3.5,-,N/A,,Overcast,340,2012-10-04 02:53:00
11:03 PM,66.2,64.4,94,30.12,1.8,Calm,Calm,-,N/A,,Overcast,0,2012-10-04 03:03:00
11:15 PM,64.4,64.4,100,30.13,1.8,NNW,3.5,-,N/A,,Overcast,330,2012-10-04 03:15:00
11:30 PM,64.4,64.4,100,30.13,2.0,Calm,Calm,-,N/A,,Overcast,0,2012-10-04 03:30:00
11:53 PM,64.9,64.0,97,30.12,2.5,NNE,3.5,-,N/A,,Overcast,20,2012-10-04 03:53:00